Temperature
30 30 29 30 31 31 31 31 31 31 32 31 30 30 30 29 28 27 25 24 23 21 20 20 19 19 19 18 18 18 18 18 18 18 18 18 17 17 17 17 17 17 16 17
30 30 31 32 32 32 32 31 31 31 32 31 30 29 28 28 27 26 25 24 23 21 20 20 19 19 18 18 18 18 18 18 18 18 18 18 17 18 17 17 17 17 16 16
29 31 32 32 32 31 31 31 31 30 31 31 29 27 26 27 27 26 26 24 23 21 21 20 19 19 18 18 18 18 18 18 18 18 18 17 18 17 17 17 17 16 16 16
31 32 32 32 32 31 31 32 31 31 30 29 28 26 25 26 26 26 26 25 24 22 21 20 19 19 18 18 18 18 18 18 18 18 18 18 18 17 17 17 17 16 16 16
31 32 32 31 32 32 31 32 31 31 29 27 26 26 25 26 26 26 26 25 24 23 21 20 20 19 19 18 18 18 18 18 18 18 18 18 18 18 17 17 17 16 16 16
31 33 33 32 33 33 32 32 31 29 26 23 23 25 26 27 28 28 27 26 24 23 22 21 20 19 19 19 18 18 18 18 18 18 18 18 18 17 17 17 17 16 16 16
30 31 33 33 32 32 32 30 28 25 23 22 23 25 26 29 30 29 28 26 25 24 22 21 21 20 19 19 18 18 18 18 18 18 18 18 17 17 17 17 17 17 16 16
29 30 31 32 31 31 31 30 28 25 24 24 24 25 28 29 30 29 27 26 25 24 23 22 21 20 20 19 19 19 18 18 18 18 18 18 17 17 17 17 17 17 17 16
30 30 32 32 32 32 31 31 31 28 27 26 25 26 27 28 28 29 28 26 26 24 24 23 22 21 20 20 19 19 18 18 18 18 18 18 18 17 17 17 17 17 17 17
30 29 31 32 32 32 32 31 30 28 27 26 26 23 23 25 26 28 28 27 26 25 24 23 23 22 21 20 20 19 19 18 18 18 18 18 18 18 17 17 17 17 17 17
31 29 30 31 30 30 30 30 29 29 28 27 25 23 24 24 26 27 28 28 27 26 25 24 23 22 22 21 20 19 19 19 18 18 18 18 18 18 18 17 17 17 17 17
30 30 29 30 31 30 30 29 28 27 27 27 27 25 26 26 26 28 28 27 27 26 25 25 24 23 22 21 20 20 19 19 18 18 18 18 18 18 17 17 17 17 17 16
28 28 28 28 28 27 27 28 28 28 27 27 26 25 26 26 26 27 28 27 26 25 25 25 24 23 22 22 21 20 20 19 19 18 18 18 18 18 18 17 17 17 17 16
27 27 27 27 26 24 24 24 26 26 26 26 26 26 24 24 25 26 26 27 26 25 25 24 23 23 22 22 22 21 20 20 19 19 18 18 18 18 18 18 17 17 17 17
27 27 28 28 27 25 24 24 25 26 27 27 26 25 25 24 25 25 26 26 26 25 25 24 23 23 22 22 22 21 21 20 20 19 19 19 19 18 18 18 17 17 17 17
26 26 27 27 28 27 26 26 26 27 28 28 27 25 25 25 25 25 25 25 25 25 24 24 23 23 22 22 22 21 21 21 21 20 20 19 19 18 18 18 17 17 17 17
23 24 25 26 27 27 26 27 28 28 28 28 26 25 25 24 24 23 23 23 24 23 23 23 23 22 22 22 21 21 21 21 20 20 20 19 19 18 18 18 17 17 17 17
20 22 23 25 25 24 27 27 27 27 27 27 26 25 24 23 22 22 22 22 22 22 22 22 22 22 21 21 21 21 21 20 20 20 19 19 19 18 18 18 17 17 17 17
21 21 22 24 24 24 25 26 26 25 25 26 25 24 24 23 22 21 21 21 20 20 20 20 20 21 20 20 20 20 20 20 19 19 19 19 18 18 18 17 17 17 16 16
23 23 23 23 23 22 23 24 25 25 23 25 25 24 24 24 22 20 19 19 19 18 18 19 19 19 19 19 19 19 19 19 19 18 18 18 18 17 17 17 17 16 16 16
22 22 23 23 23 23 23 23 24 23 22 23 23 23 22 21 20 19 18 18 17 17 17 17 17 18 18 18 18 18 18 17 17 17 17 17 17 17 16 16 16 16 15 15
20 22 22 23 22 21 22 22 22 21 22 22 22 21 20 19 19 18 17 17 16 16 16 16 16 16 17 17 17 17 16 16 16 16 16 16 16 16 16 15 15 15 15 15
19 19 19 20 20 20 21 21 21 22 21 21 21 20 20 19 18 17 17 16 16 15 15 15 15 15 15 15 16 15 15 15 15 16 16 15 15 15 15 14 14 14 14 14
18 18 18 19 19 20 20 21 21 21 21 21 20 20 19 18 17 16 16 15 15 15 14 14 14 14 14 14 14 14 14 14 14 14 14 14 14 14 14 14 14 13 13 13
18 18 18 18 19 19 20 20 21 21 20 20 19 19 18 17 16 16 15 15 14 14 14 13 13 13 13 13 13 13 13 13 13 13 13 13 13 13 13 13 13 13 13 13
18 18 18 18 19 19 19 20 20 20 19 19 18 17 17 16 16 15 14 14 14 13 13 13 13 12 12 12 12 12 12 12 12 12 12 12 13 13 13 13 13 13 12 12
Wind_Speed
17 15 15 14 13 12 12 14 12 9 6 8 9 7 4 7 8 7 8 9 10 12 12 12 13 14 13 12 11 10 11 10 8 6 6 5 5 5 4 5 8 7 6 5
17 19 18 16 14 13 14 14 13 9 9 9 9 7 1 2 6 6 8 9 10 12 13 13 13 12 13 13 11 11 11 11 9 7 5 5 6 5 5 4 7 7 6 6
21 18 16 16 14 14 14 12 12 13 13 10 9 7 2 4 5 7 8 10 12 14 14 15 14 13 13 14 13 12 11 11 10 9 6 5 5 3 5 6 5 5 6 5
21 20 18 16 14 14 14 11 13 15 15 10 7 4 3 6 8 8 9 10 12 13 15 15 15 14 14 14 13 11 11 11 10 10 8 9 7 6 7 6 6 6 6 6
21 20 19 18 15 14 14 13 14 15 13 10 8 5 5 9 10 10 10 11 12 14 16 17 16 15 15 15 13 12 12 11 10 9 9 9 7 6 6 6 8 7 5 5
23 20 18 17 16 15 13 14 14 10 6 6 9 7 3 7 8 9 10 11 11 14 16 16 15 15 14 14 14 14 12 11 11 10 9 8 8 7 7 8 8 6 5 5
24 23 20 17 17 16 13 11 9 6 3 5 11 7 3 6 8 10 11 12 12 14 15 16 16 16 15 15 15 14 14 12 11 10 9 8 7 7 7 7 8 7 6 6
20 18 19 18 18 16 13 13 10 7 6 6 6 4 3 5 8 11 12 13 14 14 15 16 16 16 15 15 15 15 15 13 12 11 9 8 8 6 6 7 6 7 5 7
19 18 14 14 17 18 15 13 11 9 11 10 2 2 3 3 5 10 12 13 13 14 16 16 17 17 16 16 15 15 15 13 13 12 10 9 9 8 7 8 6 5 4 6
21 18 15 12 15 16 15 12 8 8 7 8 1 3 2 2 4 8 12 13 13 14 15 16 16 17 16 16 15 15 15 14 12 12 11 11 9 8 6 7 8 5 5 5
22 20 19 14 13 12 10 12 9 9 9 8 6 1 4 7 7 8 11 12 13 14 15 15 15 15 15 16 16 14 15 13 13 12 11 10 10 9 8 7 7 6 5 6
16 16 16 15 8 7 11 11 9 9 10 9 7 1 3 1 6 5 8 10 11 12 13 15 15 14 14 15 16 16 15 15 14 12 11 10 10 10 10 9 8 8 7 7
9 11 14 15 9 3 6 11 11 9 9 9 8 1 3 2 3 2 6 9 8 9 11 11 11 12 12 13 14 15 15 16 15 13 12 11 11 10 10 10 9 9 9 8
7 10 13 15 7 3 4 13 15 10 8 9 8 2 3 1 1 1 4 8 9 9 9 10 10 10 10 10 11 13 14 14 14 13 13 12 12 11 10 9 9 9 9 9
9 13 15 13 8 8 10 13 14 14 13 11 7 3 2 4 4 3 4 5 7 7 8 9 9 9 9 9 9 11 12 12 12 12 13 12 12 10 10 10 9 9 10 11
8 10 12 13 12 12 13 15 17 16 13 10 5 2 2 6 6 5 6 5 5 5 5 5 6 8 9 8 8 8 9 10 10 12 12 12 12 12 12 11 10 10 10 9
6 7 10 12 10 10 13 10 10 9 6 5 2 5 8 7 8 7 6 6 6 4 3 4 4 4 6 7 7 7 6 7 8 8 8 9 10 11 11 12 11 11 10 9
8 9 7 10 9 11 6 2 2 2 1 2 6 9 11 9 9 8 9 9 9 8 7 5 3 4 3 3 5 5 5 5 6 7 7 7 8 9 8 8 9 9 8 8
10 7 6 8 9 8 4 2 1 2 3 5 7 8 9 12 12 11 10 11 10 10 10 9 7 5 5 4 3 4 3 3 3 3 3 4 5 6 7 7 7 7 7 7
9 8 9 8 6 6 2 3 3 1 3 5 7 7 6 8 7 8 10 11 12 11 11 11 11 11 10 9 7 6 6 5 3 2 2 2 1 2 4 5 5 4 5 6
8 9 11 9 5 2 1 1 2 2 4 5 8 10 9 10 10 11 12 12 12 12 12 12 12 12 11 10 9 9 8 6 4 4 5 4 3 1 1 1 2 2 4 5
4 4 6 6 5 2 2 2 3 6 7 7 9 13 15 16 15 14 13 12 12 12 12 12 12 12 11 11 10 10 9 7 7 6 5 5 4 2 1 0 1 2 4 4
3 2 2 2 2 5 6 8 8 9 9 8 11 14 15 16 15 14 13 12 12 12 12 12 12 12 12 12 11 10 8 8 7 7 7 6 5 4 3 2 1 1 2 3
3 1 2 2 5 6 7 9 9 9 10 11 13 14 15 16 15 14 12 12 12 12 11 11 11 11 11 11 10 9 8 7 7 7 6 4 3 2 2 2 2 2 2 2
3 2 2 3 3 5 6 8 10 11 12 14 15 16 15 16 15 14 12 11 11 11 10 10 10 10 10 9 9 8 8 7 7 6 5 4 3 2 2 1 1 1 1 0
4 3 2 2 2 4 7 9 12 13 14 16 17 16 15 15 14 14 12 10 10 10 9 9 9 9 9 9 9 8 8 7 7 5 5 4 3 2 2 1 1 1 2 3
Wind_Direction
231 236 246 255 263 274 285 292 300 308 305 289 287 282 223 192 193 195 180 171 166 169 165 162 163 166 162 157 163 161 148 147 146 149 154 159 162 158 143 139 145 156 149 132
240 239 249 262 269 275 282 292 300 304 293 282 290 294 306 192 194 197 181 176 168 167 167 167 168 170 165 159 162 163 155 158 157 155 165 167 160 161 146 136 145 159 156 158
237 246 246 253 266 274 282 293 299 299 292 285 286 284 174 205 190 184 181 180 176 174 173 169 167 171 167 165 169 171 163 162 163 160 171 161 144 156 144 145 159 167 162 146
244 249 255 258 265 274 280 288 292 293 293 295 290 280 191 201 197 192 183 182 178 173 170 170 171 173 172 170 170 166 164 165 166 169 174 167 171 176 166 164 158 165 168 156
246 248 252 256 262 270 282 293 292 297 308 310 311 296 199 189 196 193 181 180 177 172 170 172 175 173 171 169 169 167 165 168 170 179 178 180 177 175 163 155 150 164 165 172
255 256 254 255 260 265 275 285 288 297 321 313 286 278 219 185 183 167 165 168 170 168 169 170 171 167 168 166 166 166 166 171 174 182 177 187 181 176 162 159 156 173 168 180
251 255 256 258 258 261 262 273 287 306 326 268 261 265 184 168 147 147 154 159 164 167 168 168 169 168 169 168 168 168 168 171 177 181 178 186 185 176 167 171 171 187 181 181
245 246 246 250 255 258 257 259 268 284 278 271 254 255 124 116 123 135 145 154 162 168 170 172 172 172 173 172 171 168 171 176 180 182 180 182 182 184 181 194 190 193 203 179
250 253 244 241 247 248 255 261 271 274 276 281 248 2 57 95 130 142 148 156 163 169 172 174 174 176 178 176 175 172 173 178 182 183 178 183 188 202 192 178 205 199 186 155
248 261 255 236 240 239 246 262 275 280 287 294 335 39 304 267 216 176 157 160 164 168 173 175 175 178 180 179 174 170 174 179 182 181 182 188 192 198 192 187 196 203 179 159
235 248 256 243 235 250 251 248 257 275 282 292 297 251 206 236 234 208 164 162 165 171 171 173 176 177 177 177 174 173 175 179 183 186 189 189 187 190 192 202 192 189 179 163
241 240 250 251 239 257 262 257 252 257 268 279 288 172 135 200 261 207 153 151 162 169 169 171 174 171 175 178 177 177 179 184 187 187 186 191 188 188 192 199 194 184 181 180
252 240 243 245 240 252 276 284 276 262 262 267 279 161 96 2 297 218 144 139 152 165 164 164 167 172 177 179 178 179 183 187 190 189 189 191 193 193 197 197 190 186 185 191
268 244 243 251 224 173 261 280 284 275 258 261 263 216 136 124 259 82 124 143 155 162 159 162 169 175 179 180 178 177 184 187 189 189 191 193 197 198 199 197 192 192 190 195
256 242 246 251 200 179 208 237 255 257 260 265 264 261 208 164 150 115 119 127 138 147 160 165 170 170 169 179 184 183 183 185 188 189 192 194 194 196 198 196 193 193 195 202
256 250 252 250 233 216 215 220 231 241 248 254 231 171 114 106 104 84 75 78 99 122 142 154 161 163 168 181 185 185 188 187 185 188 194 194 191 194 199 197 194 192 196 202
281 261 253 250 250 253 241 236 240 249 256 263 224 129 106 90 87 78 70 65 63 68 100 117 134 147 166 175 174 178 181 185 187 192 198 192 192 197 199 200 197 197 196 201
269 262 254 252 247 248 255 300 285 264 286 75 103 108 108 107 90 68 63 59 52 46 47 61 88 102 118 141 166 167 171 169 175 181 189 187 191 198 198 202 200 199 198 201
243 233 237 244 237 250 284 349 65 159 66 76 99 109 119 123 105 76 62 63 58 50 44 46 52 72 69 71 92 114 130 136 140 154 172 187 196 191 190 198 201 196 195 199
225 222 234 238 230 230 243 344 337 106 94 52 85 99 109 119 104 83 66 61 58 52 46 45 47 51 53 49 60 77 78 69 68 75 87 90 133 189 192 193 196 199 198 204
213 217 229 235 232 212 73 323 264 175 109 66 80 84 90 81 95 99 84 70 62 60 57 53 53 50 45 48 60 63 60 53 46 57 62 61 53 58 95 156 170 188 209 216
269 238 228 233 226 221 10 78 68 96 93 80 87 94 96 97 96 93 86 78 69 64 61 63 60 55 48 49 58 58 50 39 37 49 61 57 52 43 11 178 188 204 218 223
344 0 351 10 104 85 73 89 105 107 105 102 98 101 103 103 100 95 88 80 72 66 61 60 66 62 53 49 53 53 37 32 38 42 45 51 49 39 24 19 354 255 245 248
344 15 111 85 80 78 88 97 94 98 102 99 98 102 103 102 99 92 84 77 71 66 62 59 62 61 56 51 50 49 42 32 33 34 30 32 43 26 35 38 3 338 319 303
348 3 55 107 110 85 76 94 99 99 99 98 95 96 98 99 96 93 85 77 72 68 63 60 60 59 57 51 47 40 34 34 35 32 27 12 11 16 26 12 354 355 18 22
39 34 60 101 112 119 108 99 102 100 98 96 95 92 89 90 92 89 83 78 74 69 63 61 57 54 51 50 45 36 31 27 23 19 10 358 357 0 333 313 302 291 268 227
Height
1478 1479 1477 1470 1464 1463 1462 1463 1463 1458 1452 1454 1457 1457 1458 1461 1466 1469 1474 1478 1482 1486 1491 1494 1497 1501 1505 1510 1515 1519 1522 1526 1530 1533 1537 1540 1544 1546 1548 1550 1551 1553 1554 1555
1475 1474 1466 1460 1458 1458 1458 1462 1461 1456 1450 1451 1455 1457 1457 1459 1464 1468 1471 1476 1480 1485 1489 1492 1496 1500 1503 1508 1512 1517 1521 1525 1529 1532 1536 1540 1543 1545 1548 1549 1550 1552 1553 1554
1472 1465 1458 1458 1457 1459 1458 1460 1460 1458 1451 1448 1455 1463 1462 1460 1463 1466 1469 1473 1478 1482 1486 1490 1493 1498 1502 1506 1511 1515 1519 1523 1527 1531 1535 1539 1541 1544 1546 1548 1549 1551 1552 1553
1462 1457 1455 1456 1456 1456 1461 1452 1452 1452 1456 1460 1460 1476 1470 1463 1463 1464 1467 1471 1475 1479 1483 1488 1492 1496 1501 1505 1510 1514 1518 1522 1526 1530 1533 1536 1539 1542 1545 1546 1547 1549 1551 1552
1458 1453 1453 1455 1453 1451 1452 1447 1449 1452 1459 1467 1468 1474 1471 1460 1463 1461 1462 1467 1471 1476 1481 1486 1490 1495 1500 1504 1508 1512 1516 1520 1524 1528 1532 1535 1538 1541 1544 1545 1546 1548 1549 1550
1450 1446 1446 1446 1445 1445 1445 1448 1450 1455 1469 1492 1482 1480 1473 1456 1452 1453 1457 1463 1469 1474 1480 1485 1490 1494 1499 1502 1507 1510 1514 1519 1522 1526 1530 1533 1537 1539 1541 1543 1544 1546 1548 1549
1455 1447 1442 1442 1445 1444 1445 1458 1474 1486 1497 1498 1479 1475 1464 1445 1442 1448 1454 1461 1467 1472 1478 1483 1488 1493 1497 1501 1505 1509 1513 1516 1520 1524 1528 1531 1535 1537 1539 1541 1543 1545 1546 1547
1459 1456 1442 1440 1443 1446 1446 1453 1474 1493 1496 1484 1476 1471 1454 1441 1443 1448 1453 1459 1465 1471 1476 1481 1486 1491 1495 1499 1503 1507 1511 1514 1518 1522 1526 1529 1532 1535 1537 1539 1541 1543 1545 1545
1451 1450 1435 1435 1436 1438 1445 1446 1444 1461 1468 1474 1472 1464 1454 1445 1447 1448 1453 1458 1463 1468 1474 1479 1484 1489 1493 1497 1501 1505 1508 1512 1516 1520 1523 1527 1530 1533 1535 1537 1540 1541 1543 1544
1441 1448 1435 1432 1433 1432 1434 1438 1446 1458 1473 1478 1473 1479 1477 1459 1454 1449 1451 1456 1461 1466 1471 1476 1481 1486 1490 1495 1499 1503 1507 1510 1514 1518 1521 1524 1527 1530 1533 1535 1537 1539 1541 1542
1431 1443 1439 1433 1438 1439 1438 1441 1446 1450 1453 1469 1482 1482 1463 1458 1453 1450 1449 1454 1459 1464 1468 1473 1478 1483 1488 1492 1496 1500 1504 1508 1511 1515 1518 1522 1524 1527 1530 1532 1534 1536 1537 1539
1427 1434 1441 1435 1429 1431 1436 1440 1446 1461 1461 1456 1465 1473 1452 1451 1450 1448 1448 1452 1458 1462 1466 1471 1476 1481 1485 1490 1494 1498 1501 1505 1508 1511 1515 1518 1521 1524 1526 1528 1530 1532 1534 1535
1430 1436 1448 1447 1443 1441 1444 1442 1441 1446 1451 1457 1465 1468 1451 1449 1449 1449 1449 1452 1457 1462 1465 1470 1475 1479 1483 1487 1491 1495 1499 1502 1505 1508 1511 1515 1517 1520 1522 1524 1527 1528 1530 1531
1432 1435 1443 1450 1450 1451 1456 1453 1448 1450 1455 1456 1456 1457 1455 1453 1451 1450 1452 1454 1457 1461 1464 1468 1473 1477 1480 1484 1488 1491 1495 1499 1502 1505 1508 1511 1513 1516 1518 1521 1523 1525 1526 1528
1431 1434 1432 1430 1434 1443 1452 1452 1449 1449 1445 1448 1449 1451 1452 1450 1452 1452 1453 1455 1457 1461 1464 1467 1471 1475 1478 1482 1485 1489 1492 1496 1499 1502 1504 1507 1509 1513 1515 1517 1519 1520 1522 1524
1431 1433 1432 1433 1430 1434 1441 1441 1440 1439 1435 1437 1441 1450 1447 1448 1452 1454 1455 1456 1458 1461 1464 1467 1470 1472 1475 1478 1481 1485 1488 1492 1495 1498 1500 1503 1505 1508 1510 1512 1514 1516 1517 1519
1437 1439 1440 1438 1430 1434 1440 1432 1431 1431 1430 1434 1443 1447 1447 1451 1454 1457 1458 1458 1460 1462 1464 1466 1468 1471 1473 1476 1479 1482 1485 1488 1491 1494 1497 1500 1501 1503 1505 1507 1509 1511 1512 1515
1445 1446 1443 1439 1440 1456 1435 1424 1426 1431 1431 1432 1437 1443 1448 1453 1457 1459 1460 1461 1463 1464 1465 1466 1468 1470 1473 1475 1477 1480 1482 1485 1487 1490 1493 1495 1497 1499 1501 1504 1505 1507 1508 1510
1439 1443 1444 1442 1446 1446 1436 1428 1431 1437 1440 1436 1440 1444 1448 1453 1458 1463 1464 1465 1466 1467 1467 1468 1469 1470 1472 1474 1476 1478 1480 1483 1485 1486 1488 1491 1493 1496 1497 1499 1500 1502 1504 1504
1433 1434 1441 1440 1448 1456 1445 1434 1432 1435 1447 1442 1443 1445 1448 1451 1459 1467 1468 1469 1469 1469 1469 1470 1470 1471 1472 1474 1476 1478 1480 1482 1483 1485 1486 1488 1490 1492 1494 1495 1497 1499 1500 1501
1436 1436 1437 1438 1444 1444 1438 1435 1435 1449 1455 1447 1447 1448 1451 1456 1462 1469 1471 1472 1472 1472 1472 1472 1473 1473 1474 1475 1477 1478 1479 1481 1483 1484 1485 1486 1488 1489 1490 1491 1493 1495 1496 1497
1441 1438 1438 1437 1447 1453 1439 1438 1442 1448 1447 1449 1451 1453 1457 1461 1466 1470 1473 1475 1476 1476 1476 1476 1475 1476 1477 1477 1478 1480 1481 1482 1483 1483 1484 1485 1486 1487 1488 1489 1490 1491 1493 1494
1444 1446 1445 1445 1449 1444 1441 1442 1446 1447 1450 1453 1455 1458 1462 1466 1470 1474 1476 1478 1479 1480 1480 1480 1479 1479 1480 1480 1481 1482 1482 1483 1483 1483 1483 1483 1484 1485 1487 1487 1488 1489 1490 1491
1449 1445 1447 1448 1447 1446 1446 1446 1447 1450 1453 1456 1459 1463 1466 1469 1473 1477 1479 1481 1482 1483 1483 1484 1483 1483 1484 1484 1484 1484 1484 1484 1484 1483 1483 1483 1484 1485 1486 1487 1487 1488 1488 1489
1449 1447 1447 1449 1448 1448 1449 1450 1452 1455 1458 1461 1464 1467 1470 1473 1477 1480 1482 1484 1485 1486 1487 1487 1487 1487 1487 1487 1487 1487 1486 1486 1485 1485 1485 1485 1485 1485 1485 1485 1485 1486 1486 1486
1450 1450 1450 1451 1450 1452 1453 1454 1456 1459 1463 1466 1469 1472 1475 1478 1481 1483 1486 1488 1489 1490 1490 1490 1490 1491 1491 1490 1489 1489 1488 1488 1487 1486 1486 1486 1486 1486 1486 1485 1484 1484 1484 1484